Location: Marcé
(47.5801°N, 0.3280°W)
Time: 23:31:20
(UTC+01:00)

Transit 2A - Pass Details

Date: 02 December 2021
Orbit: 591 x 967 km, 66.7° (Epoch: 23 January)

Event Time Altitude Azimuth Distance (km) Brightness Sun altitude
Rises 00:44:59 0° 181° (S) 3,263 - -64.3°
Reaches altitude 10° 00:47:30 10° 171° (S) 2,399 - -64.4°
Maximum altitude 00:52:24 32° 110° (ESE) 1,445 - -64.4°
Drops below altitude 10° 00:57:42 10° 49° (NE) 2,617 - -64.3°
Sets 01:00:34 0° 41° (NE) 3,605 - -64.3°
